Weather History for Oak Ridge, TN

Change the Weather History Date:

Thursday, July 18, 2013

  Actual Average (KTYS) Record (KTYS)
Temperature  
Mean Temperature 81 °F 79 °F  
Max Temperature 91 °F 88 °F 100 °F (1913)
Min Temperature 71 °F 69 °F 57 °F (1967)
Degree Days  
Heating Degree Days 0 0  
Month to date heating degree days 0  
Since 1 June heating degree days 4  
Since 1 July heating degree days 0  
Cooling Degree Days 16 14  
Month to date cooling degree days 242  
Year to date cooling degree days 709  
Since 1 June cooling degree days 547  
Growing Degree Days 31 (Base 50)    
Moisture  
Dew Point 71 °F    
Average Humidity 82    
Maximum Humidity 100    
Minimum Humidity 48    
Precipitation  
Precipitation 0.29 in 0.18 in 1.60 in (1984)
Month to date precipitation 3.03  
Year to date precipitation 28.28  
Snow  
Snow 0.00 in 0.00 in - ()
Month to date snowfall 0.0  
Since 1 June snowfall 0.0  
Since 1 July snowfall 0.0  
Snow Depth -    
Sea Level Pressure  
Sea Level Pressure 30.17 in    
Wind  
Wind Speed 2 mph (East)    
Max Wind Speed 5 mph    
Max Gust Speed -    
Visibility 8 miles    
Events Rain    
T = Trace of Precipitation, MM = Missing Value Source: NWS Daily Summary

Daily Weather History Graph

Daily Weather History Graph

Search for Another Location

Airport:

Trip Planner

Search our weather history database for the weather conditions in past years. The results will help you decide how hot, cold, wet, or windy it might be!

Date:

Astronomy

Jul. 18, 2013 Rise Set
Actual Time 6:33 AM EDT 8:52 PM EDT
Civil Twilight 6:04 AM EDT 9:21 PM EDT
Nautical Twilight 5:28 AM EDT 9:57 PM EDT
Astronomical Twilight 4:49 AM EDT 10:36 PM EDT
Moon 4:48 PM EDT (7/18) 2:21 AM EDT (7/18)
Length of Visible Light 15h 16m
Length of Day
14h 18m
Waxing Gibbous, 77% of the Moon is Illuminated
Jul 18
Waxing Gibbous
Jul 22
Full
Jul 29
Last Quarter
Aug 6
New
Aug 14
First Quarter

Hourly Weather History & Observations

Time (EDT) Temp. Heat Index Dew Point Humidity Pressure Visibility Wind Dir Wind Speed Gust Speed Precip Events Conditions
12:53 AM 73.9 °F - 70.0 °F 87% 30.22 in 10.0 mi Variable 3.5 mph - 0.00 in   Overcast
1:18 AM 73.4 °F - 71.6 °F 94% 30.27 in 1.2 mi Calm Calm - 0.04 in Rain Heavy Rain
1:26 AM 71.6 °F - 71.6 °F 100% 30.26 in 0.8 mi Calm Calm - 0.27 in Rain Light Rain
1:30 AM 71.6 °F - 71.6 °F 100% 30.26 in 2.0 mi Calm Calm - 0.28 in Rain Light Rain
1:37 AM 73.4 °F - 71.6 °F 94% 30.26 in 4.0 mi Calm Calm - 0.29 in Rain Light Rain
1:53 AM 73.0 °F - 71.1 °F 93% 30.19 in 6.0 mi Calm Calm - 0.29 in Rain Light Rain
2:53 AM 72.0 °F - 71.1 °F 97% 30.15 in 6.0 mi Calm Calm - 0.00 in   Clear
3:05 AM 71.6 °F - 71.6 °F 100% 30.20 in 5.0 mi Calm Calm - N/A   Partly Cloudy
3:53 AM 71.1 °F - 71.1 °F 100% 30.16 in 4.0 mi ENE 3.5 mph - N/A   Overcast
4:28 AM 71.6 °F - 69.8 °F 94% 30.21 in 5.0 mi ENE 4.6 mph - N/A   Mostly Cloudy
4:53 AM 72.0 °F - 71.1 °F 97% 30.15 in 5.0 mi NE 3.5 mph - N/A   Mostly Cloudy
5:01 AM 71.6 °F - 69.8 °F 94% 30.20 in 5.0 mi ENE 4.6 mph - N/A   Scattered Clouds
5:53 AM 71.1 °F - 70.0 °F 96% 30.16 in 5.0 mi East 4.6 mph - N/A   Clear
6:17 AM 71.6 °F - 69.8 °F 94% 30.21 in 5.0 mi East 3.5 mph - N/A   Partly Cloudy
6:48 AM 71.6 °F - 69.8 °F 94% 30.22 in 5.0 mi Calm Calm - N/A   Mostly Cloudy
6:53 AM 71.1 °F - 70.0 °F 96% 30.17 in 5.0 mi Calm Calm - N/A   Mostly Cloudy
7:53 AM 72.0 °F - 70.0 °F 93% 30.19 in 7.0 mi East 3.5 mph - N/A   Mostly Cloudy
8:05 AM 71.6 °F - 69.8 °F 94% 30.23 in 7.0 mi Calm Calm - N/A   Scattered Clouds
8:35 AM 73.4 °F - 71.6 °F 94% 30.24 in 9.0 mi Calm Calm - N/A   Mostly Cloudy
8:53 AM 73.0 °F - 71.1 °F 93% 30.19 in 9.0 mi Calm Calm - N/A   Mostly Cloudy
9:18 AM 73.4 °F - 71.6 °F 94% 30.23 in 10.0 mi Calm Calm - N/A   Scattered Clouds
9:53 AM 75.9 °F - 71.1 °F 85% 30.18 in 10.0 mi Calm Calm - N/A   Mostly Cloudy
10:53 AM 79.0 °F - 71.1 °F 77% 30.18 in 10.0 mi East 4.6 mph - N/A   Partly Cloudy
11:53 AM 81.0 °F 84.9 °F 71.1 °F 72% 30.18 in 10.0 mi Calm Calm - N/A   Overcast
12:53 PM 82.9 °F 87.5 °F 71.1 °F 67% 30.17 in 10.0 mi Variable 4.6 mph - N/A   Overcast
1:32 PM 84.2 °F 89.6 °F 71.6 °F 66% 30.21 in 10.0 mi East 4.6 mph - N/A   Partly Cloudy
1:53 PM 84.9 °F 90.1 °F 71.1 °F 63% 30.15 in 10.0 mi SE 4.6 mph - N/A   Partly Cloudy
2:53 PM 87.1 °F 92.0 °F 70.0 °F 57% 30.11 in 10.0 mi Calm Calm - N/A   Mostly Cloudy
3:53 PM 87.1 °F 92.0 °F 70.0 °F 57% 30.09 in 10.0 mi East 3.5 mph - N/A   Mostly Cloudy
4:53 PM 89.1 °F 93.7 °F 69.1 °F 52% 30.06 in 10.0 mi Calm Calm - N/A   Clear
5:53 PM 91.0 °F 95.6 °F 69.1 °F 48% 30.04 in 10.0 mi Variable 3.5 mph - N/A   Clear
6:53 PM 89.1 °F 93.7 °F 69.1 °F 52% 30.04 in 10.0 mi East 3.5 mph - N/A   Clear
7:53 PM 88.0 °F 93.8 °F 71.1 °F 57% 30.04 in 10.0 mi Calm Calm - N/A   Clear
8:53 PM 86.0 °F 92.2 °F 72.0 °F 63% 30.06 in 10.0 mi South 3.5 mph - N/A   Clear
9:53 PM 82.9 °F 88.0 °F 72.0 °F 69% 30.07 in 10.0 mi Variable 3.5 mph - N/A   Scattered Clouds
10:53 PM 81.0 °F 84.9 °F 71.1 °F 72% 30.10 in 10.0 mi South 4.6 mph - N/A   Clear
11:53 PM 80.1 °F 83.6 °F 71.1 °F 74% 30.10 in 10.0 mi Calm Calm - N/A   Partly Cloudy